Location: Munderkingen
(48.2395°N, 9.6433°E)
Time: 08:57:26
(UTC+01:00)

ISS - Pass Details

Date: 22 March 2017
Orbit: 401 x 407 km, 51.6° (Epoch: 25 November)

Event Time Altitude Azimuth Distance (km) Brightness Sun altitude
Exits shadow 03:59:48 22° 129° (SE) 992 -1.7 -23.2°
Drops below altitude 10° 04:01:08 10° 125° (SE) 1,516 -0.6 -23.0°
Enters shadow 05:02:28 -58° 312° (NW) 11,278 3.4 -13.6°
